Black River Falls, WI

5:10 PM CST on December 14, 2017 (GMT -0600)
Black River Falls Area

Weather History for KBCK - March, 2013

Change the Weather History Date:

Friday, March 1, 2013

  Actual Average (KCMY) Record (KCMY)
Temperature  
Mean Temperature 21 °F -  
Max Temperature 32 °F 37 °F 54 °F (1964)
Min Temperature 8 °F 16 °F -30 °F (1962)
Degree Days  
Heating Degree Days 44    
Moisture  
Dew Point 14 °F    
Average Humidity 69    
Maximum Humidity 92    
Minimum Humidity 44    
Precipitation  
Precipitation 0.00 in - - ()
Sea Level Pressure  
Sea Level Pressure 30.24 in    
Wind  
Wind Speed 7 mph (NNE)    
Max Wind Speed 12 mph    
Max Gust Speed 16 mph    
Visibility 10 miles    
Events Snow    
Averages and records for this station are not official NWS values.
T = Trace of Precipitation, MM = Missing Value Source: NWS Daily Summary

Daily Weather History Graph

Daily Weather History Graph

Search for Another Location

Airport or City:

Trip Planner

Search our weather history database for the weather conditions in past years. The results will help you decide how hot, cold, wet, or windy it might be!

Date:

Astronomy

Mar. 01, 2013 Rise Set
Actual Time 6:40 AM CST 5:51 PM CST
Civil Twilight 6:11 AM CST 6:21 PM CST
Nautical Twilight 5:37 AM CST 6:54 PM CST
Astronomical Twilight 5:03 AM CST 7:28 PM CST
Moon 10:38 PM CST (3/1) 8:15 AM CST (3/1)
Length of Visible Light 12h 10m
Length of Day
11h 11m
Waning Gibbous, 83% of the Moon is Illuminated
Mar 1
Waning Gibbous
Mar 4
Last Quarter
Mar 11
New
Mar 19
First Quarter
Mar 27
Full

Hourly Weather History & Observations

Time (CST) Temp. Windchill Dew Point Humidity Pressure Visibility Wind Dir Wind Speed Gust Speed Precip Events Conditions
12:15 AM 26.6 °F 16.2 °F 15.8 °F 64% 30.17 in 10.0 mi NE 11.5 mph 16.1 mph N/A   Overcast
12:35 AM 24.8 °F 15.3 °F 15.8 °F 69% 30.18 in 10.0 mi NNE 9.2 mph - N/A   Overcast
12:55 AM 24.8 °F 14.6 °F 15.8 °F 69% 30.18 in 10.0 mi NNE 10.4 mph - N/A   Overcast
1:15 AM 24.8 °F 16.9 °F 15.8 °F 69% 30.18 in 10.0 mi NE 6.9 mph - N/A   Overcast
1:35 AM 24.8 °F 16.1 °F 15.8 °F 69% 30.18 in 10.0 mi NE 8.1 mph - N/A   Overcast
1:55 AM 23.0 °F 13.9 °F 15.8 °F 74% 30.19 in 10.0 mi NNE 8.1 mph - N/A   Overcast
2:15 AM 23.0 °F 14.7 °F 15.8 °F 74% 30.19 in 10.0 mi NNE 6.9 mph - N/A   Overcast
2:35 AM 23.0 °F 17.0 °F 15.8 °F 74% 30.19 in 10.0 mi NE 4.6 mph - N/A   Overcast
2:55 AM 23.0 °F 14.7 °F 15.8 °F 74% 30.19 in 10.0 mi NE 6.9 mph - N/A   Overcast
3:15 AM 23.0 °F 13.9 °F 15.8 °F 74% 30.19 in 10.0 mi NNE 8.1 mph - N/A   Overcast
3:35 AM 21.2 °F 11.7 °F 15.8 °F 80% 30.19 in 10.0 mi NE 8.1 mph - N/A   Mostly Cloudy
3:55 AM 23.0 °F 14.7 °F 17.6 °F 80% 30.20 in 10.0 mi NNE 6.9 mph - N/A Snow Light Snow
4:15 AM 23.0 °F 18.4 °F 17.6 °F 80% 30.20 in 7.0 mi NNE 3.5 mph - N/A Snow Light Snow
4:35 AM 23.0 °F 18.4 °F 17.6 °F 80% 30.20 in 10.0 mi NNE 3.5 mph - N/A   Overcast
4:55 AM 23.0 °F - 17.6 °F 80% 30.20 in 7.0 mi Calm Calm - N/A Snow Light Snow
5:15 AM 21.2 °F - 17.6 °F 86% 30.21 in 10.0 mi Calm Calm - N/A   Overcast
5:35 AM 23.0 °F 18.4 °F 17.6 °F 80% 30.21 in 10.0 mi North 3.5 mph - N/A   Overcast
5:55 AM 23.0 °F 18.4 °F 15.8 °F 74% 30.21 in 10.0 mi North 3.5 mph - N/A   Overcast
6:15 AM 23.0 °F 15.8 °F 15.8 °F 74% 30.22 in 10.0 mi North 5.8 mph - N/A   Overcast
6:35 AM 23.0 °F 15.8 °F 15.8 °F 74% 30.22 in 10.0 mi North 5.8 mph - N/A   Overcast
6:55 AM 23.0 °F 14.7 °F 15.8 °F 74% 30.23 in 10.0 mi North 6.9 mph - N/A   Overcast
7:15 AM 23.0 °F 13.9 °F 15.8 °F 74% 30.24 in 10.0 mi North 8.1 mph - N/A   Overcast
7:55 AM 23.0 °F 14.7 °F 17.6 °F 80% 30.25 in 10.0 mi North 6.9 mph - N/A   Overcast
8:15 AM 23.0 °F 15.8 °F 17.6 °F 80% 30.25 in 10.0 mi North 5.8 mph - N/A   Overcast
8:35 AM 23.0 °F 14.7 °F 15.8 °F 74% 30.26 in 10.0 mi North 6.9 mph - N/A   Overcast
8:55 AM 24.8 °F 16.9 °F 15.8 °F 69% 30.25 in 10.0 mi NNE 6.9 mph - N/A   Overcast
9:15 AM 24.8 °F 16.9 °F 15.8 °F 69% 30.26 in 10.0 mi NNE 6.9 mph - N/A   Overcast
9:35 AM 24.8 °F 16.9 °F 15.8 °F 69% 30.26 in 10.0 mi NNE 6.9 mph - N/A   Overcast
9:55 AM 24.8 °F 14.6 °F 14.0 °F 64% 30.26 in 10.0 mi North 10.4 mph - N/A   Overcast
10:15 AM 24.8 °F 15.3 °F 14.0 °F 64% 30.27 in 10.0 mi NE 9.2 mph - N/A   Overcast
10:35 AM 24.8 °F 14.6 °F 14.0 °F 64% 30.27 in 10.0 mi North 10.4 mph - N/A   Overcast
10:55 AM 24.8 °F 15.3 °F 14.0 °F 64% 30.27 in 10.0 mi NE 9.2 mph - N/A   Overcast
11:15 AM 26.6 °F 16.8 °F 14.0 °F 59% 30.27 in 10.0 mi NNE 10.4 mph - N/A   Overcast
11:35 AM 26.6 °F 21.2 °F 14.0 °F 59% 30.28 in 10.0 mi North 4.6 mph - N/A   Overcast
11:55 AM 26.6 °F 20.0 °F 14.0 °F 59% 30.27 in 10.0 mi North 5.8 mph - N/A   Overcast
12:35 PM 26.6 °F 18.2 °F 14.0 °F 59% 30.26 in 10.0 mi NE 8.1 mph - N/A   Mostly Cloudy
12:55 PM 28.4 °F 19.1 °F 14.0 °F 55% 30.26 in 10.0 mi ENE 10.4 mph - N/A   Mostly Cloudy
1:15 PM 28.4 °F 19.1 °F 14.0 °F 55% 30.25 in 10.0 mi ENE 10.4 mph - N/A   Scattered Clouds
1:35 PM 28.4 °F 19.1 °F 14.0 °F 55% 30.24 in 10.0 mi NNE 10.4 mph - N/A   Scattered Clouds
1:55 PM 30.2 °F 21.3 °F 15.8 °F 55% 30.24 in 10.0 mi North 10.4 mph - N/A   Scattered Clouds
2:15 PM 30.2 °F 24.3 °F 14.0 °F 51% 30.23 in 10.0 mi NE 5.8 mph - N/A   Scattered Clouds
2:35 PM 30.2 °F 21.9 °F 14.0 °F 51% 30.23 in 10.0 mi NNE 9.2 mph - N/A   Clear
2:55 PM 30.2 °F 24.3 °F 14.0 °F 51% 30.23 in 10.0 mi North 5.8 mph - N/A   Clear
3:15 PM 30.2 °F 24.3 °F 14.0 °F 51% 30.23 in 10.0 mi NNE 5.8 mph - N/A   Clear
3:35 PM 30.2 °F 22.6 °F 14.0 °F 51% 30.23 in 10.0 mi NNE 8.1 mph - N/A   Clear
3:55 PM 32.0 °F 28.7 °F 14.0 °F 48% 30.23 in 10.0 mi NNE 3.5 mph - N/A   Clear
4:15 PM 32.0 °F 25.6 °F 12.2 °F 44% 30.23 in 10.0 mi North 6.9 mph - N/A   Clear
4:35 PM 30.2 °F 22.6 °F 12.2 °F 47% 30.24 in 10.0 mi NE 8.1 mph - N/A   Clear
4:55 PM 30.2 °F - 12.2 °F 47% 30.24 in 10.0 mi Calm Calm - N/A   Clear
5:15 PM 30.2 °F 22.6 °F 12.2 °F 47% 30.24 in 10.0 mi North 8.1 mph - N/A   Clear
5:35 PM 30.2 °F 25.4 °F 12.2 °F 47% 30.25 in 10.0 mi NNE 4.6 mph - N/A   Clear
5:55 PM 28.4 °F 24.6 °F 12.2 °F 51% 30.25 in 10.0 mi NNE 3.5 mph - N/A   Clear
6:15 PM 26.6 °F - 10.4 °F 51% 30.26 in 10.0 mi Calm Calm - N/A   Clear
6:35 PM 23.0 °F - 12.2 °F 63% 30.26 in 10.0 mi Calm Calm - N/A   Clear
6:55 PM 21.2 °F - 12.2 °F 68% 30.26 in 10.0 mi Calm Calm - N/A   Clear
7:15 PM 19.4 °F - 12.2 °F 74% 30.26 in 10.0 mi Calm Calm - N/A   Clear
7:35 PM 17.6 °F - 12.2 °F 79% 30.26 in 10.0 mi Calm Calm - N/A   Clear
7:55 PM 15.8 °F - 12.2 °F 86% 30.26 in 10.0 mi Calm Calm - N/A   Clear
8:15 PM 14.0 °F 8.2 °F 10.4 °F 86% 30.26 in 10.0 mi NW 3.5 mph - N/A   Clear
8:55 PM 14.0 °F - 10.4 °F 86% 30.27 in 10.0 mi Calm Calm - N/A   Clear
9:15 PM 12.2 °F - 10.4 °F 92% 30.27 in 10.0 mi Calm Calm - N/A   Clear
9:55 PM 14.0 °F - 10.4 °F 86% 30.27 in 10.0 mi Calm Calm - N/A   Clear
10:15 PM 12.2 °F 6.1 °F 8.6 °F 85% 30.27 in 10.0 mi North 3.5 mph - N/A   Clear
10:35 PM 10.4 °F - 8.6 °F 92% 30.27 in 10.0 mi Calm Calm - N/A   Clear
10:55 PM 10.4 °F - 6.8 °F 85% 30.27 in 10.0 mi Calm Calm - N/A   Clear
11:15 PM 10.4 °F - 6.8 °F 85% 30.28 in 10.0 mi Calm Calm - N/A   Clear
11:35 PM 10.4 °F - 6.8 °F 85% 30.28 in 10.0 mi Calm Calm - N/A   Clear
11:55 PM 8.6 °F - 5.0 °F 85% 30.27 in 10.0 mi Calm Calm - N/A   Clear